Theta_e
280 279 280 280 280 280 279 279 280 280 280 280 280 281 281 281 280 280 279 280 280 280 280 280 279 278 278 277 277 277 277 277 278 278 277 277 277 278 278 279 279 280 280 281 281 281 282 282 283 284 284 285 285 285 284 284 284 284 285 285 285 285 284 284 284 284 285 285 286 286 286 287 287 288
279 279 279 279 280 279 279 279 280 279 279 279 279 279 280 280 280 279 279 279 279 279 279 279 278 278 277 277 277 277 277 277 277 277 277 277 277 277 278 278 278 279 279 279 279 280 280 281 282 282 283 283 284 284 284 283 283 284 284 284 283 283 283 283 283 283 284 285 285 285 285 286 286 287
279 279 279 279 279 279 278 278 279 278 278 278 278 278 278 279 279 279 278 278 279 279 278 278 278 277 277 276 276 276 276 276 276 277 277 277 277 277 277 277 277 278 278 278 278 279 279 280 280 281 281 282 282 282 282 282 282 282 282 282 282 282 281 281 282 282 283 284 284 284 285 285 285 286
279 279 279 279 279 278 277 277 278 277 277 278 278 278 278 278 278 278 278 278 278 278 278 277 277 276 276 276 276 275 275 276 276 276 276 277 277 276 276 276 276 277 277 277 277 278 278 278 279 279 280 280 280 280 280 280 280 280 280 280 281 280 280 280 281 282 282 283 283 283 284 284 285 285
278 278 278 278 278 277 277 277 277 277 277 277 277 277 277 277 277 277 277 278 277 277 277 276 276 276 276 275 275 275 275 275 276 276 276 276 276 276 275 275 275 276 276 276 276 277 277 277 277 277 277 278 278 278 278 278 278 279 279 279 280 279 279 279 280 280 281 282 282 282 283 284 284 284
277 277 277 277 277 277 277 277 276 276 276 276 276 276 276 276 277 277 277 277 277 277 276 276 276 275 275 275 275 275 275 275 276 276 276 276 276 275 275 275 275 275 275 275 276 276 276 276 276 276 276 277 277 277 277 277 277 278 278 278 278 278 278 278 279 279 280 281 281 281 282 283 282 282
276 276 277 277 276 276 276 276 276 276 276 275 275 275 275 276 276 276 276 276 276 276 275 275 275 275 275 275 275 275 275 275 276 276 276 275 275 275 275 275 275 274 275 275 275 275 275 275 275 275 275 275 276 276 276 276 277 277 277 277 277 276 277 277 278 279 279 280 280 280 281 282 281 281
276 276 276 276 276 276 276 275 275 275 275 274 274 275 275 275 275 275 275 275 275 275 275 274 274 274 274 274 275 275 275 275 276 275 275 275 275 275 274 274 274 274 274 274 274 273 273 274 274 274 274 274 274 275 275 275 275 275 275 275 275 275 276 277 277 278 278 279 279 279 280 280 280 281
276 276 275 275 275 275 275 275 275 275 274 274 274 274 274 274 275 275 274 274 274 274 274 274 274 274 274 274 275 275 275 275 275 275 274 274 274 274 274 274 273 273 273 272 272 272 272 273 273 273 273 273 273 273 273 273 273 273 274 274 274 275 275 276 277 277 278 278 278 279 279 280 280 280
275 275 275 275 275 275 275 275 274 274 274 274 274 274 274 274 274 274 274 274 274 274 274 274 274 274 274 275 275 275 275 275 274 274 274 274 274 274 273 273 272 272 271 271 271 271 271 271 272 272 272 272 272 272 272 272 272 272 273 273 274 274 275 275 276 277 277 278 278 278 279 279 279 279
275 275 275 275 274 274 274 274 274 274 274 274 274 274 274 274 274 274 274 274 274 274 274 274 274 274 274 275 275 275 274 274 274 274 274 274 273 273 272 272 272 271 271 271 271 271 271 271 271 270 270 270 270 270 270 271 271 271 272 272 273 274 274 275 275 276 277 277 277 278 278 278 278 279
275 275 275 274 274 274 274 274 274 274 274 274 274 274 274 274 274 274 274 274 274 274 274 274 274 274 274 274 274 274 273 273 274 274 273 273 273 272 272 272 271 271 270 270 270 270 270 270 269 269 269 269 269 269 270 270 270 271 271 272 272 273 274 275 275 276 276 277 277 277 277 277 278 278
275 274 274 274 274 274 275 275 274 274 274 274 274 274 274 274 274 274 274 274 274 274 274 274 274 274 274 274 273 273 273 273 273 273 273 272 272 272 271 271 271 270 270 270 270 269 269 269 268 268 268 268 268 269 269 269 270 270 271 271 272 273 274 274 275 275 276 276 276 276 276 276 277 277
274 274 274 274 274 274 274 274 274 274 274 274 274 274 274 274 274 273 273 273 274 274 274 274 274 273 273 273 273 273 273 273 273 272 272 272 271 271 271 270 270 270 269 269 269 268 268 268 268 268 268 268 268 268 268 269 269 270 271 271 272 272 273 273 274 274 275 275 275 275 275 276 276 276
274 273 273 273 273 273 273 273 273 273 273 274 273 273 273 273 273 273 273 273 274 274 274 273 273 273 273 273 273 272 272 272 271 271 271 271 270 270 270 270 269 269 268 268 268 267 267 267 267 267 267 267 268 268 268 268 269 269 270 270 271 271 272 272 273 273 273 274 274 274 275 275 275 275
273 273 273 273 273 273 273 273 273 273 272 272 273 273 273 273 273 273 273 273 273 273 273 272 272 272 272 272 272 272 271 271 270 270 270 269 269 269 269 269 268 268 267 267 266 266 266 266 266 267 267 267 267 267 267 267 268 269 269 270 270 270 271 271 272 272 273 273 273 273 274 274 274 274
273 273 273 273 272 272 273 272 272 272 272 272 272 272 273 272 272 272 273 273 272 272 272 272 272 272 272 271 271 270 270 269 269 269 269 268 268 268 267 267 267 266 266 266 266 266 266 266 266 266 266 266 266 266 266 267 267 268 268 269 269 269 269 270 271 271 272 272 272 272 273 273 273 274
273 273 272 272 272 272 272 272 272 272 272 272 272 272 272 272 272 272 271 271 271 271 271 271 271 271 271 270 270 269 269 268 268 268 267 267 266 266 266 266 265 265 265 265 265 265 265 265 265 265 265 265 265 265 265 266 267 267 267 267 268 268 269 269 270 270 271 271 271 271 272 272 273 273
272 272 272 272 272 272 271 271 271 272 272 273 273 272 272 271 271 270 270 270 270 270 270 270 270 270 269 269 268 268 267 267 266 266 266 265 265 265 264 264 264 264 264 264 264 264 264 264 264 264 264 264 264 264 264 265 265 266 266 266 267 267 267 268 269 269 269 270 270 270 271 271 272 272
272 272 272 272 271 271 271 271 272 272 273 273 272 271 270 270 269 269 269 269 269 269 269 269 269 268 267 267 266 266 266 265 265 265 265 264 264 263 263 263 263 263 263 263 263 263 263 263 263 263 263 263 263 263 263 264 264 264 265 265 266 266 266 267 267 268 268 269 269 270 270 270 271 271
272 271 271 271 271 271 271 271 272 273 273 272 271 270 269 269 268 267 267 267 268 268 268 267 266 265 265 265 264 264 264 264 264 264 263 262 262 262 262 262 262 262 262 262 262 262 262 262 262 262 262 262 262 262 262 262 263 263 264 264 264 265 265 266 266 267 267 268 268 269 269 269 270 270
271 271 271 271 271 271 271 271 272 272 272 271 270 269 268 268 267 267 267 267 267 267 266 265 263 263 263 262 262 262 262 263 263 262 261 261 261 261 261 261 261 261 261 261 261 261 261 261 261 261 261 261 261 261 261 261 261 262 262 262 262 263 264 264 265 266 266 267 267 267 268 268 269 269
271 270 270 271 271 271 271 271 272 272 272 271 270 269 267 266 266 267 267 266 266 265 263 262 261 261 261 260 260 260 260 261 261 260 260 260 260 260 260 260 260 259 259 260 260 260 260 260 260 260 260 260 260 260 260 260 260 260 261 261 261 262 262 263 264 264 265 265 265 266 266 267 268 268
270 270 270 270 271 271 271 271 271 271 271 270 269 268 266 266 266 267 266 265 264 262 261 260 260 260 259 259 259 259 259 259 259 259 259 259 259 259 259 259 259 258 258 259 259 259 259 259 259 259 259 259 259 260 260 260 260 260 260 260 260 261 262 262 262 262 263 263 264 265 265 266 266 267
270 270 270 270 270 270 271 271 271 270 269 269 268 266 266 266 267 266 264 263 262 260 260 259 259 258 258 258 258 258 258 258 258 258 258 258 258 258 258 258 258 258 258 258 258 258 258 258 258 258 258 259 259 259 259 259 259 259 260 260 260 260 261 261 261 261 261 262 262 263 264 265 266 267
270 270 270 270 269 270 270 270 269 269 268 267 266 265 266 266 265 264 262 261 260 259 259 258 258 258 257 257 257 257 257 257 257 257 257 257 257 257 257 257 257 257 257 257 257 257 257 257 258 258 258 258 258 259 259 259 259 259 259 260 260 260 260 260 260 261 261 261 261 262 263 264 265 265
270 270 269 269 269 270 269 268 268 267 266 265 264 265 265 264 262 261 260 260 259 259 258 257 257 257 257 257 257 257 257 257 256 256 256 256 256 256 256 256 256 256 256 256 256 256 256 257 257 257 258 258 258 258 259 259 259 259 259 259 259 259 259 260 260 260 260 260 261 261 262 263 263 264
269 269 269 269 269 269 268 267 266 266 264 263 263 263 263 262 260 260 259 259 258 258 257 257 256 256 256 256 256 256 256 256 255 255 255 255 255 255 255 255 255 255 255 255 255 256 256 256 256 257 257 257 258 258 258 258 259 258 258 259 259 259 259 259 259 260 260 260 261 261 261 262 262 263
269 269 269 269 268 268 267 266 265 264 263 262 262 261 261 260 260 259 259 258 257 257 256 256 256 256 256 256 255 255 255 255 255 255 255 255 255 254 254 254 254 254 254 255 255 255 255 256 256 256 257 257 257 258 258 258 258 258 258 258 258 258 259 259 259 260 260 260 261 261 261 262 262 263
269 269 268 268 267 267 266 265 264 263 262 261 261 260 260 259 259 258 257 257 256 256 256 256 255 255 255 255 255 254 254 254 254 254 254 254 254 254 254 254 254 254 254 254 254 255 255 255 255 256 256 256 256 257 257 257 257 257 257 258 258 258 259 259 260 260 260 261 261 261 262 262 262 263
268 268 267 267 267 266 265 263 262 261 261 260 260 259 259 258 258 257 257 256 256 256 255 255 255 255 255 254 254 254 254 254 254 254 254 254 253 253 253 253 253 253 254 254 254 254 255 255 255 255 255 256 256 256 256 256 257 257 257 258 258 258 259 259 260 260 261 261 261 262 262 262 262 263
267 267 267 266 266 264 263 262 262 261 260 260 259 259 258 258 257 257 256 256 256 255 255 255 254 254 254 254 254 254 253 253 253 253 253 253 253 253 253 253 253 253 253 253 254 254 254 254 255 255 255 255 255 256 256 256 257 257 257 258 258 259 259 260 260 261 261 261 261 262 262 262 262 262
267 266 266 265 264 263 262 262 261 260 260 260 259 259 259 258 257 256 256 255 255 255 254 254 254 254 253 253 253 253 253 253 253 253 253 252 252 252 252 252 252 253 253 253 253 254 254 254 254 255 255 255 256 256 256 256 257 257 258 258 259 259 260 260 260 261 261 261 261 261 262 262 262 263
266 266 265 264 263 262 261 261 260 259 259 259 259 259 259 258 257 256 255 255 254 254 254 254 253 253 253 253 253 253 252 252 252 252 252 252 252 252 252 252 252 252 253 253 253 253 254 254 254 255 255 255 256 256 257 257 257 258 258 259 259 260 260 260 260 261 261 261 261 261 262 262 262 263
266 265 264 263 262 261 260 260 259 258 258 258 258 258 258 258 256 255 255 255 254 254 254 253 253 253 253 253 252 252 252 252 252 252 252 251 251 251 252 252 252 252 252 252 253 253 253 254 254 254 255 256 256 257 257 258 258 259 259 259 260 260 260 260 260 261 261 261 261 262 262 262 263 263
265 264 263 262 261 260 260 259 259 258 258 257 257 257 257 257 256 255 254 254 254 253 253 253 253 253 252 252 252 252 252 251 251 251 251 251 251 251 251 251 252 252 252 252 253 253 253 254 254 255 255 256 256 256 257 258 258 259 259 259 259 260 260 260 261 261 261 262 262 263 263 263 264 264
264 263 262 261 260 260 259 259 258 258 258 257 257 257 256 256 256 255 254 254 253 253 253 253 252 252 252 252 252 251 251 251 251 251 251 251 251 251 251 251 251 252 252 252 253 253 253 254 254 255 255 255 256 256 257 258 258 258 259 259 260 260 260 261 261 262 263 263 264 264 264 264 265 265
263 262 261 261 260 260 259 259 258 258 258 257 257 256 256 256 255 255 254 254 253 253 253 252 252 252 252 251 251 251 251 251 250 250 250 250 250 251 251 251 251 251 252 252 252 253 253 254 254 255 255 255 255 256 256 257 258 258 259 259 260 261 261 262 263 263 264 264 264 264 265 265 265 266
262 262 261 261 260 260 259 259 258 258 258 257 257 256 255 255 255 255 254 254 253 253 252 252 252 252 251 251 251 251 250 250 250 250 250 250 250 250 251 251 251 251 252 252 252 253 253 254 254 255 255 256 256 256 257 257 258 258 259 260 261 262 262 263 264 264 264 264 264 265 265 266 266 266
262 261 261 261 260 260 259 259 259 258 258 257 257 256 255 255 255 255 254 253 253 253 252 252 252 252 251 251 251 250 250 250 250 250 250 250 250 250 250 251 251 251 252 252 252 253 253 254 254 255 255 256 256 257 257 257 258 259 260 260 261 262 263 263 264 264 264 265 265 265 266 266 266 267
262 261 261 261 260 260 259 259 259 258 258 257 256 256 255 255 254 254 254 253 252 252 252 252 252 251 251 251 250 250 249 249 249 249 249 250 250 250 250 251 251 251 252 252 252 253 253 254 255 255 256 256 257 257 258 258 259 259 260 261 261 262 263 263 263 264 264 265 265 266 266 266 266 267
262 261 261 260 260 260 259 259 258 258 258 257 256 256 255 255 254 254 254 253 252 252 252 252 252 251 251 251 250 250 249 249 249 249 249 249 249 250 250 250 251 251 251 252 252 253 254 254 255 256 256 256 257 257 258 258 259 260 261 261 261 262 262 262 263 264 264 265 265 265 266 266 267 267
261 261 261 260 260 259 259 259 258 258 257 257 256 256 255 255 254 254 253 253 253 252 252 252 252 251 251 250 250 249 249 249 249 249 249 249 249 250 250 250 251 251 252 252 253 253 254 255 255 256 256 257 257 258 258 259 260 260 261 261 261 261 262 262 262 263 263 264 264 265 266 266 267 267
261 261 261 260 260 259 259 259 258 258 257 257 256 255 255 255 255 254 254 253 253 252 252 252 251 251 251 250 250 249 249 249 249 249 249 249 249 250 250 250 251 252 252 253 253 254 254 255 255 256 257 257 258 258 259 260 260 260 260 261 261 261 261 262 262 262 262 263 263 264 265 266 266 267
261 261 261 260 260 260 259 259 258 257 257 256 256 255 255 254 254 254 254 254 253 253 252 252 251 251 250 250 249 249 249 249 249 249 249 249 250 250 250 251 251 252 252 253 253 254 254 255 256 256 257 257 258 259 259 260 260 260 260 260 261 261 261 262 262 262 262 262 263 264 265 265 266 266
Wind_Speed
8 8 8 7 7 8 8 8 9 10 11 12 12 13 15 13 9 7 6 7 11 15 15 15 19 22 25 27 28 28 28 26 25 28 29 29 29 27 27 29 29 28 28 29 31 33 34 34 34 38 41 42 42 43 43 43 45 45 44 44 44 43 43 43 43 42 41 40 39 39 39 39 39 40
7 7 7 7 7 8 8 8 10 10 10 12 12 12 13 14 12 10 9 8 11 16 18 18 21 26 27 28 29 28 27 27 26 27 29 29 27 26 26 27 27 28 29 30 31 32 32 33 35 38 40 40 41 43 44 45 46 46 45 45 44 43 44 45 44 43 42 41 40 39 38 38 39 39
6 6 6 7 7 8 9 9 9 10 10 12 12 12 13 14 14 15 14 10 12 18 23 23 24 26 28 28 28 28 27 28 28 27 28 28 26 26 26 27 28 29 30 30 31 31 32 34 36 38 39 40 40 41 43 45 46 46 45 44 43 43 45 46 46 44 42 41 40 39 39 39 39 39
5 5 6 6 7 8 9 9 10 10 11 11 11 12 13 14 15 17 16 14 17 22 23 26 27 27 28 28 27 29 30 29 28 28 28 27 26 27 28 30 30 28 28 29 30 31 33 35 37 37 38 39 40 41 43 44 45 45 44 44 43 44 47 48 47 45 43 41 40 40 40 39 39 39
4 5 6 6 7 8 9 10 11 11 11 12 12 13 14 15 15 17 18 17 21 25 23 25 28 28 28 29 28 30 32 31 30 30 28 27 27 28 31 33 31 27 27 29 31 32 34 34 36 38 40 40 40 41 42 43 44 44 43 43 44 46 50 50 48 45 43 42 41 40 40 39 39 39
4 5 5 6 7 8 9 10 11 11 11 12 14 14 14 16 16 16 18 19 21 25 26 26 28 27 27 29 31 31 32 33 32 31 29 28 30 31 32 32 30 28 27 29 32 33 34 36 39 41 41 40 41 42 43 44 44 43 43 43 46 49 52 51 47 45 43 41 41 40 39 39 40 40
4 4 5 5 7 8 9 10 10 11 12 13 14 14 14 15 16 16 18 20 22 25 27 26 27 29 28 29 31 31 31 31 31 31 31 31 33 34 32 31 30 29 29 31 33 35 38 40 41 40 39 40 42 43 45 45 44 43 44 45 48 52 52 50 47 45 42 40 40 40 39 40 42 41
3 4 5 6 7 8 9 10 10 10 13 13 13 14 14 15 17 17 17 20 22 24 28 28 27 28 29 30 30 31 32 31 29 31 34 35 35 33 31 30 30 32 33 34 36 39 41 40 39 39 40 41 42 43 45 45 45 46 47 48 50 51 50 48 46 44 42 39 41 41 40 41 42 42
3 4 6 7 8 8 9 10 11 12 14 14 13 13 15 16 17 18 19 20 22 23 26 28 28 27 28 30 30 29 31 32 32 33 35 34 32 30 32 33 34 36 37 38 38 39 39 39 39 40 40 41 42 42 44 47 49 51 51 50 49 48 46 45 45 44 41 40 42 42 41 41 41 41
3 4 5 7 7 8 9 9 11 13 14 14 13 14 15 17 18 20 20 21 22 22 23 26 27 27 27 28 28 27 29 33 35 35 35 32 29 30 35 38 39 39 39 39 38 38 39 41 42 41 40 42 43 45 48 50 51 51 51 49 47 45 44 44 44 43 41 41 43 42 41 42 42 41
4 5 6 7 7 8 8 10 12 14 14 13 13 14 16 17 19 19 20 20 21 22 22 23 26 27 26 26 27 29 31 31 31 31 31 31 33 37 40 42 41 40 40 39 38 38 40 42 43 42 42 45 48 50 51 51 49 48 47 47 45 44 44 43 42 42 42 43 43 42 42 42 42 42
4 5 6 7 8 8 9 11 12 12 14 14 14 15 16 17 18 19 20 20 21 21 22 24 25 26 26 26 27 30 31 30 29 29 28 28 33 39 42 43 42 41 39 38 37 39 41 43 46 46 45 48 52 51 50 48 45 44 44 44 44 44 43 43 42 43 43 43 43 44 43 43 42 42
4 5 6 6 8 8 9 10 10 11 12 14 15 16 17 18 19 19 19 20 21 22 22 23 24 25 26 26 28 30 30 30 31 30 29 30 34 38 42 45 44 40 39 39 38 40 43 47 52 51 47 48 51 49 45 42 41 41 41 43 44 44 44 44 45 44 44 44 44 44 44 43 42 42
5 5 6 6 7 8 9 9 10 11 12 13 14 16 17 18 19 20 20 20 21 22 23 23 24 25 26 26 27 29 31 31 31 30 30 31 35 37 38 42 44 41 40 42 42 43 46 50 53 51 45 45 47 45 41 40 40 41 43 44 45 45 45 45 46 46 44 44 45 45 44 43 42 42
6 6 6 7 8 9 9 10 11 12 12 13 14 15 16 17 18 18 20 21 22 23 23 24 24 24 26 28 28 28 29 30 31 32 31 31 33 34 32 32 38 42 44 47 48 49 48 48 49 48 41 40 42 41 40 41 43 44 45 45 45 45 46 47 48 48 46 45 45 45 44 43 42 43
5 6 7 8 9 9 9 10 11 12 13 14 15 16 16 16 16 17 19 21 22 23 24 25 24 24 26 28 27 26 28 31 33 34 34 34 33 34 33 32 37 45 49 48 46 46 45 43 44 43 38 37 40 41 42 44 44 44 44 45 46 47 49 50 50 49 47 45 44 44 45 45 45 44
5 6 8 9 9 9 9 10 11 13 15 15 15 15 16 16 16 16 17 18 20 22 23 24 25 25 26 26 27 28 31 35 37 36 36 36 34 35 38 40 44 48 47 42 38 39 40 39 39 40 39 40 41 42 42 43 43 44 46 47 50 51 50 49 48 46 44 43 44 45 46 46 46 45
6 7 8 8 9 9 9 11 13 14 15 14 15 16 17 16 15 15 17 19 20 21 21 22 25 26 26 27 30 34 35 36 37 37 38 38 38 39 41 43 46 45 41 38 35 34 36 37 37 39 41 42 42 42 43 44 45 46 48 49 49 49 48 47 46 45 44 45 46 46 46 46 45 45
7 7 7 7 8 9 11 12 12 13 14 15 16 16 14 14 15 18 20 20 20 20 21 23 26 27 28 31 34 36 35 35 35 36 37 38 38 39 40 40 40 39 36 34 32 31 35 37 36 38 41 42 43 43 43 45 45 46 47 48 48 48 47 47 46 46 46 47 47 45 45 46 45 44
6 5 6 7 8 10 11 11 11 13 15 15 14 14 15 18 21 23 21 20 21 22 22 23 25 28 31 34 34 34 33 34 34 33 34 33 32 33 32 32 34 35 33 33 32 32 35 36 36 38 41 42 43 43 44 44 44 45 45 46 46 47 47 47 47 46 45 45 45 46 46 46 45 45
5 6 6 7 8 9 9 9 11 14 15 13 14 17 20 23 25 26 24 22 20 19 20 23 27 30 31 30 31 31 29 29 29 29 29 28 28 27 24 24 29 34 35 34 32 31 33 34 36 39 41 42 41 42 43 42 40 42 43 44 45 45 46 46 45 44 44 44 45 47 46 46 46 44
6 7 6 6 7 7 8 10 13 14 13 15 17 19 22 25 26 26 25 21 19 21 26 29 30 29 27 27 28 27 25 25 24 24 24 25 26 24 22 23 29 33 36 35 29 28 32 35 36 37 38 39 41 40 39 39 41 43 43 43 43 44 44 44 44 44 45 44 45 46 45 45 44 41
6 6 6 6 6 7 8 11 12 11 12 16 18 20 24 26 25 24 22 20 24 30 32 31 29 28 28 27 25 23 23 23 22 20 21 23 24 24 24 26 24 21 28 36 33 29 31 34 37 36 29 25 32 39 39 38 41 45 44 42 44 43 42 43 43 43 43 43 44 45 44 42 41 37
4 5 5 6 6 7 10 11 10 10 13 16 18 21 24 25 23 22 21 22 27 30 29 28 28 29 29 27 25 24 23 23 21 21 22 22 24 25 26 28 24 19 27 37 36 32 32 33 37 38 28 19 25 38 42 39 39 44 45 44 45 44 42 41 42 42 42 43 43 42 41 40 38 36
4 5 5 5 6 8 9 8 9 12 14 16 19 22 23 21 21 22 23 25 26 25 25 26 27 27 28 28 28 27 25 23 23 23 24 24 25 25 25 27 28 27 33 38 35 33 34 34 34 36 34 27 27 36 43 42 43 47 47 44 44 44 42 41 42 42 41 41 40 39 39 39 38 37
4 4 4 5 6 7 7 8 10 13 15 17 19 21 19 17 18 19 22 24 24 23 24 25 25 26 28 28 29 28 26 25 25 25 26 26 26 26 26 26 26 30 36 40 38 34 33 34 34 33 32 31 31 34 36 38 43 48 46 42 43 45 44 41 41 41 41 41 41 39 39 40 39 38
4 4 5 5 4 5 7 9 11 13 15 18 18 16 14 14 16 18 21 22 22 23 24 24 24 26 27 27 28 28 27 27 28 28 29 29 29 29 29 28 29 32 36 39 37 33 32 35 36 34 33 34 32 27 25 30 39 46 47 46 47 46 44 43 43 44 45 44 41 41 41 41 38 36
4 3 4 3 4 7 10 11 13 16 18 17 13 11 12 14 16 19 20 20 21 22 23 23 24 25 25 25 27 27 28 29 30 31 31 31 31 31 33 34 34 33 34 35 34 32 32 34 37 36 36 36 31 25 24 30 39 46 48 49 50 49 47 46 46 46 45 43 41 42 42 40 37 36
4 4 6 7 9 13 14 15 17 19 17 13 10 11 13 15 17 18 19 19 20 20 21 22 24 25 25 26 27 28 30 31 31 33 34 34 34 34 36 38 38 35 33 33 33 32 30 33 36 37 37 37 36 33 32 34 40 46 46 44 48 52 51 45 42 42 43 42 42 42 41 40 40 39
6 8 11 13 14 15 16 17 17 15 12 11 11 12 14 15 16 17 17 17 18 19 21 22 23 25 27 28 29 29 29 30 31 32 34 36 36 36 38 41 42 40 36 33 33 33 32 33 35 37 38 39 39 39 39 37 41 47 48 44 43 46 48 45 41 41 43 44 44 43 42 43 43 41
9 11 13 13 14 15 16 16 13 11 11 11 12 12 13 14 15 15 15 15 16 18 20 21 23 26 28 29 29 29 29 30 30 30 31 33 36 37 38 39 41 43 42 38 36 35 33 34 35 37 38 39 39 43 45 42 41 45 49 47 40 38 42 45 43 43 43 43 45 46 44 43 43 41
10 11 12 13 15 16 15 13 11 10 10 11 12 12 13 13 14 15 14 15 16 18 19 22 24 26 27 28 29 29 29 30 30 30 30 31 34 35 35 34 36 40 43 45 44 41 39 38 38 38 38 38 40 44 45 42 40 40 42 43 40 38 41 42 40 44 47 45 45 46 44 43 43 43
10 10 12 14 15 15 13 11 10 10 10 11 12 12 13 14 15 15 15 16 17 18 20 23 25 26 26 28 28 29 30 30 30 30 30 30 33 34 33 31 32 36 39 44 47 47 45 44 42 41 40 38 38 39 38 37 38 37 36 37 37 37 40 41 41 45 48 44 41 42 44 45 45 42
10 11 13 14 14 13 11 10 9 9 10 11 12 12 13 14 15 15 15 16 17 19 20 22 24 24 25 27 28 29 30 31 32 31 30 30 31 32 31 31 33 34 36 40 44 45 46 47 46 45 43 39 35 33 30 31 34 36 35 34 34 36 41 45 45 45 44 42 38 36 39 46 47 43
11 12 14 13 12 11 9 9 9 9 10 11 12 12 13 14 14 15 16 16 17 19 20 21 22 23 24 26 28 28 29 31 32 32 31 30 30 30 30 32 34 35 36 37 41 44 45 45 44 42 40 37 32 26 20 20 26 34 36 34 33 37 42 44 45 43 42 43 40 33 30 36 44 44
13 14 13 12 11 10 9 9 9 9 10 10 11 12 13 14 14 15 15 16 17 18 19 20 22 24 25 26 27 28 29 30 31 32 31 30 30 31 31 31 32 34 35 36 39 42 41 40 40 34 26 22 20 17 18 23 26 28 32 34 35 37 41 44 45 44 41 40 38 32 25 27 36 41
14 13 13 12 11 10 9 9 9 9 10 10 10 11 12 13 15 15 15 16 17 17 18 20 22 24 25 26 27 28 29 28 29 31 31 30 30 30 30 31 31 33 34 36 38 39 37 36 35 30 20 14 11 13 24 37 38 29 27 32 38 41 43 43 41 39 38 37 37 34 31 31 35 41
14 14 13 13 11 10 9 9 9 9 10 10 10 11 12 13 15 15 15 16 17 18 18 20 22 24 25 26 26 27 29 29 29 29 29 29 29 29 29 31 32 33 34 35 36 37 35 32 31 29 22 15 10 11 20 34 42 42 39 37 38 42 43 38 34 35 37 38 39 40 38 37 38 42
14 14 13 13 11 10 10 9 9 10 10 10 11 11 12 13 14 15 16 17 17 18 19 20 23 24 25 25 25 26 28 29 29 29 29 29 29 29 29 30 32 33 33 34 35 36 35 31 30 31 29 23 21 24 28 31 40 51 52 43 36 37 39 36 34 35 36 38 42 44 42 40 39 39
14 14 14 13 11 10 10 10 10 10 10 10 11 11 12 13 14 15 16 17 17 18 20 21 23 24 25 26 26 25 27 28 28 28 29 29 29 30 29 30 31 31 31 32 33 35 35 34 34 37 38 36 36 40 41 38 38 45 48 43 37 36 37 37 36 34 34 37 39 36 33 33 33 32
16 15 14 13 11 11 10 10 10 10 10 11 11 12 12 13 14 15 16 16 16 18 20 22 23 24 25 25 26 26 26 28 28 29 29 29 30 31 30 30 30 30 29 29 31 34 37 40 42 42 41 40 40 38 30 23 23 32 41 45 44 41 38 38 38 35 35 39 36 28 24 26 27 27
17 16 14 13 12 11 11 10 10 10 10 11 12 12 12 13 14 15 15 16 17 18 20 22 22 23 25 25 25 25 26 27 29 30 30 29 30 31 31 30 30 30 30 30 32 37 41 43 44 42 39 37 35 27 18 14 19 29 38 45 48 47 44 41 39 37 36 37 34 26 22 21 18 15
18 16 14 14 12 11 11 10 10 10 11 11 12 12 13 14 15 15 16 17 18 19 20 21 22 23 24 25 25 25 26 27 28 29 29 30 29 29 31 32 32 32 33 33 35 39 41 41 40 40 37 35 31 25 21 23 28 31 36 40 45 48 49 46 43 40 36 33 30 28 28 26 19 15
18 16 14 14 13 11 11 11 11 11 11 11 12 12 13 14 15 15 16 17 19 19 20 21 22 22 23 24 25 26 26 26 27 28 29 30 30 30 31 32 33 33 34 34 36 39 39 39 39 37 33 32 31 28 26 28 31 32 35 38 41 43 46 46 46 46 44 39 34 32 34 34 31 29
18 16 14 13 13 12 11 11 11 11 12 12 12 13 14 14 15 16 16 17 18 19 20 21 22 22 23 24 25 26 26 26 27 28 29 30 31 31 31 31 32 33 33 33 34 36 38 39 38 35 32 32 31 29 28 30 31 32 34 36 37 39 40 41 42 42 42 43 42 38 37 38 37 36
Wind_Direction
38 36 33 28 22 359 350 3 2 349 346 346 343 342 341 336 328 321 317 319 317 318 326 328 323 326 330 331 332 332 332 331 329 326 325 324 323 323 323 323 323 323 323 323 325 325 324 323 322 322 321 319 319 320 321 323 323 322 321 321 322 323 323 322 321 319 316 313 310 309 308 308 306 305
35 31 26 21 13 354 351 360 355 347 347 348 343 340 338 334 330 322 312 310 312 316 321 323 321 323 327 329 328 329 329 327 325 323 321 321 320 320 322 323 323 322 321 322 323 323 322 321 319 319 318 317 318 319 321 322 322 322 322 322 321 322 323 322 319 316 313 310 308 308 307 306 304 303
20 23 20 18 8 348 348 357 354 350 350 347 343 341 337 333 329 322 313 300 303 314 317 316 318 322 323 326 326 325 325 324 323 321 320 320 319 319 321 323 322 321 320 321 322 322 321 319 317 316 316 316 316 317 318 320 320 320 320 320 319 320 320 318 315 313 311 309 308 307 307 305 302 302
11 17 14 13 359 344 349 359 356 354 354 350 342 336 333 330 326 321 314 299 298 308 313 313 317 321 321 323 325 324 323 323 322 321 320 319 319 319 320 321 321 320 320 321 321 320 319 317 316 315 315 314 314 315 316 317 317 316 315 315 315 317 318 315 313 311 309 308 308 307 306 303 301 303
13 20 14 8 355 347 356 359 356 355 354 346 336 333 333 330 327 323 316 305 301 306 312 314 316 320 322 322 324 324 323 323 324 322 321 321 319 318 319 320 320 320 320 320 319 319 318 317 315 314 314 312 312 313 313 313 313 312 312 312 312 315 315 313 311 310 309 307 307 306 304 301 301 304
13 20 12 4 353 353 0 359 357 354 346 339 335 335 335 329 325 323 317 310 306 306 312 317 317 320 323 321 323 325 323 322 323 322 321 321 319 318 319 319 318 318 319 318 317 316 315 314 312 311 311 311 311 311 311 310 310 309 309 310 311 312 312 310 308 308 307 305 305 304 302 301 302 304
13 15 4 358 353 356 0 356 355 349 338 336 336 334 332 327 323 322 318 313 309 308 311 317 319 321 322 320 321 323 322 321 322 321 320 320 319 318 319 318 317 318 318 316 315 313 311 310 309 309 309 309 309 309 309 309 309 309 308 308 308 308 308 307 306 305 304 302 303 303 301 302 303 303
4 2 357 359 359 357 354 351 348 341 332 334 336 332 329 327 322 320 318 314 312 310 310 314 318 319 318 318 320 322 321 321 321 320 319 319 318 317 317 317 317 316 315 313 311 310 309 308 308 309 309 309 308 307 308 308 309 308 306 306 306 305 305 304 303 303 300 299 302 303 301 302 304 303
345 354 355 357 358 351 347 344 338 332 332 335 336 331 327 326 323 320 319 316 314 312 310 312 316 318 318 317 319 322 323 323 323 321 318 318 318 318 316 315 314 314 313 312 311 310 308 307 308 309 310 309 308 308 307 306 307 306 304 303 303 302 301 301 301 300 298 298 302 302 301 302 304 302
357 360 358 355 350 343 338 336 331 329 333 334 332 329 327 326 323 320 319 318 316 314 311 312 315 318 319 317 318 323 326 324 322 320 319 319 319 318 314 312 312 313 313 312 311 309 308 308 308 310 311 310 308 307 306 304 304 303 302 301 300 299 298 298 298 297 296 299 301 301 301 302 303 303
9 357 352 345 339 336 332 331 331 330 331 331 327 325 325 324 323 322 320 320 319 317 315 315 315 316 318 318 319 322 324 322 320 321 323 321 319 317 313 311 312 313 313 311 310 308 307 308 308 308 309 309 306 305 304 303 302 301 299 299 299 298 297 296 297 295 295 298 300 299 300 302 302 302
355 340 331 325 328 331 327 325 326 327 330 330 326 325 326 324 322 322 321 321 320 318 316 315 315 316 318 320 321 322 325 324 322 325 326 319 315 315 313 311 312 315 315 313 311 310 309 308 308 308 308 307 305 303 303 302 301 299 298 298 298 297 296 296 297 295 294 296 299 300 300 301 301 301
331 318 315 318 323 322 318 319 321 323 328 328 325 326 328 327 325 323 321 320 320 318 316 316 317 318 318 321 323 323 324 324 322 325 326 317 313 314 311 309 310 314 315 313 310 310 311 310 309 308 308 307 305 303 303 302 301 299 298 298 298 297 296 295 296 296 295 295 298 301 302 301 300 300
307 311 318 322 321 320 320 323 323 325 328 328 327 328 329 329 327 323 321 320 319 318 318 318 320 319 317 320 323 321 322 324 325 327 325 319 316 315 311 308 310 314 317 315 311 310 311 310 307 307 308 307 304 304 304 304 303 301 300 299 298 297 296 296 297 299 298 297 298 301 302 301 301 302
297 310 319 322 325 328 329 328 327 328 331 331 330 327 327 326 325 322 320 319 320 320 318 317 318 317 316 318 322 323 326 328 328 327 323 319 318 316 313 309 310 315 318 317 311 310 312 310 306 306 309 308 305 306 307 306 305 303 301 299 299 300 300 300 301 301 300 299 300 301 302 303 303 303
291 308 316 322 328 332 332 329 327 325 326 329 328 325 325 325 323 321 319 318 320 320 317 315 316 316 317 319 324 331 332 329 326 323 319 317 315 313 310 307 306 312 317 316 310 309 313 312 306 306 310 309 307 307 308 306 305 303 302 302 304 305 304 303 302 302 301 301 302 304 304 304 304 303
295 307 313 320 326 329 326 321 320 321 324 328 328 325 325 324 322 321 320 319 318 316 314 314 314 318 322 324 327 330 329 325 322 320 315 314 313 310 308 307 307 312 317 317 311 308 310 311 308 307 310 310 308 308 307 305 304 304 304 306 307 306 305 304 304 304 304 305 305 306 306 305 305 304
292 300 308 313 317 316 311 312 320 326 328 328 326 325 324 323 323 324 323 321 317 314 314 314 314 319 324 324 323 322 321 319 317 316 313 313 313 309 308 308 308 311 316 317 312 307 308 311 310 308 309 308 307 307 305 304 304 305 306 307 308 308 308 308 308 309 308 308 307 306 306 305 305 304
279 293 303 302 301 301 305 316 326 329 328 326 324 324 327 326 325 322 322 321 317 314 314 313 314 317 320 319 318 318 319 318 315 313 311 310 311 310 309 310 310 310 314 317 313 307 308 313 311 308 308 307 305 305 303 302 304 304 306 308 308 310 310 310 311 311 309 308 307 305 305 306 306 305
273 286 292 289 291 301 312 323 329 328 328 328 327 332 335 331 325 322 321 318 314 313 314 314 315 317 317 318 318 318 320 319 316 315 313 313 315 315 312 312 312 313 315 317 315 309 309 314 313 308 308 306 304 303 301 301 304 305 307 310 310 310 311 310 310 309 307 307 306 305 306 307 307 307
267 271 277 286 298 310 320 324 327 329 332 337 338 337 335 330 325 323 321 317 315 315 316 316 317 317 318 319 319 320 320 320 321 320 318 319 320 318 315 314 314 315 314 315 318 313 311 315 314 309 307 305 302 301 301 302 305 307 308 309 309 309 309 309 308 307 307 308 307 307 308 309 309 310
262 273 284 296 307 316 321 325 328 331 337 344 342 335 333 331 327 323 322 321 321 318 315 316 319 321 323 323 322 322 322 323 326 325 321 321 322 320 317 314 315 314 310 312 321 319 312 314 313 310 309 305 300 299 302 305 307 307 307 307 307 308 309 308 308 307 308 309 309 309 310 310 312 313
269 285 297 304 312 319 321 326 330 331 338 342 336 330 332 330 324 323 326 324 321 319 319 324 327 328 330 329 326 325 325 326 329 327 323 323 323 321 317 314 317 314 306 310 320 319 313 314 313 311 312 307 302 303 305 306 307 306 307 308 308 308 309 309 308 309 309 309 310 310 310 311 313 313
277 289 300 308 317 321 322 326 328 331 337 337 330 327 329 326 321 323 323 318 319 323 327 332 333 331 333 334 331 330 331 331 331 328 326 325 322 319 316 313 313 304 298 306 316 318 314 312 309 308 308 301 300 305 306 305 306 306 307 308 308 308 310 310 309 309 308 308 309 309 310 311 311 311
271 283 294 306 314 318 321 326 327 329 333 331 326 324 324 321 321 322 318 317 324 331 333 334 334 333 335 336 336 336 334 332 330 326 324 323 320 317 314 311 310 304 299 304 314 316 312 308 305 305 306 300 296 302 305 305 305 305 307 308 308 308 310 310 308 308 307 307 308 308 308 309 309 309
263 275 287 299 307 314 319 323 326 329 330 327 323 322 323 324 323 320 318 325 334 338 338 336 335 335 337 337 337 337 333 329 327 323 321 320 318 314 310 308 306 303 301 305 311 314 309 304 304 306 306 303 300 302 303 303 304 307 308 307 308 308 309 309 307 306 306 306 306 306 307 308 308 308
250 271 282 288 297 307 312 320 325 327 325 323 324 328 328 325 322 322 327 336 341 340 339 337 335 335 338 336 334 332 329 326 323 321 318 317 315 312 309 307 304 301 301 304 308 309 305 301 302 304 304 303 303 301 300 300 305 309 308 307 308 308 308 308 306 304 305 305 304 306 307 307 307 307
249 272 266 252 269 289 298 308 313 313 316 322 329 333 328 322 325 333 339 342 342 339 337 335 334 334 334 332 328 326 323 322 320 319 317 316 315 314 311 310 309 306 305 305 307 307 305 301 301 303 303 302 300 300 301 303 304 306 307 308 309 309 308 309 307 305 306 306 305 306 306 306 307 308
246 234 230 242 266 281 288 297 305 310 318 326 329 326 324 327 334 341 344 343 340 335 333 332 331 330 329 326 323 321 321 321 320 320 320 320 319 319 317 315 314 312 312 312 311 310 308 304 304 305 304 302 300 298 299 301 301 302 304 305 307 307 308 309 307 306 306 306 305 305 304 303 304 305
229 235 250 262 272 282 292 301 309 317 326 331 328 326 329 335 341 345 345 341 335 330 330 330 327 325 324 323 322 323 323 322 322 322 323 322 321 322 323 320 318 318 319 319 317 315 313 309 308 307 305 304 302 298 297 298 298 299 301 301 302 305 308 309 309 307 307 306 306 305 305 304 304 302
245 255 262 266 274 286 297 304 312 323 330 331 331 332 336 339 344 346 343 335 330 329 329 327 324 323 324 324 325 325 324 322 322 323 324 322 321 323 324 321 318 319 322 322 321 320 318 315 313 311 307 304 301 300 300 298 294 294 298 301 301 301 304 308 309 308 308 308 308 307 306 305 304 302
251 255 260 268 281 293 299 304 315 325 328 331 331 332 337 342 344 344 341 334 334 333 328 325 324 325 326 325 325 325 324 322 323 325 325 323 321 323 324 320 316 318 321 322 323 324 323 321 318 315 310 305 301 301 300 297 293 292 295 300 302 300 302 306 308 309 311 311 307 306 305 304 303 301
242 251 266 279 287 293 297 303 314 321 322 325 328 331 338 342 342 343 339 335 334 331 327 326 326 325 325 324 324 324 323 322 324 326 326 325 323 323 322 317 314 316 318 318 321 323 325 325 323 319 314 309 303 301 298 293 292 293 296 300 303 303 305 308 308 309 310 309 304 303 304 303 302 301
242 256 271 281 282 284 291 298 306 312 314 319 327 333 338 339 338 337 335 332 330 329 328 328 327 324 322 322 323 324 323 323 325 326 326 326 324 323 320 316 314 316 316 315 317 321 323 325 325 323 320 316 311 306 298 288 288 295 301 303 303 304 306 309 309 309 309 307 302 299 299 300 302 303
248 259 268 272 271 273 280 287 294 301 306 313 323 330 334 336 332 328 329 331 328 327 328 328 326 323 321 321 322 323 323 323 324 325 326 326 324 321 318 315 313 315 317 315 316 320 323 324 324 324 323 322 320 316 308 296 295 302 306 306 306 306 306 308 310 308 306 305 301 295 292 296 301 305
251 260 265 262 258 260 269 277 284 292 299 310 319 323 325 327 327 324 324 325 325 326 327 326 323 321 322 321 321 322 323 323 323 323 324 325 323 320 318 315 314 315 316 315 317 320 322 323 324 324 323 324 325 321 316 316 314 309 307 307 308 309 308 309 309 307 305 305 303 298 294 294 298 304
252 257 255 253 253 257 265 272 279 287 297 306 313 315 315 317 320 321 320 320 323 325 324 322 320 321 321 322 322 322 323 323 322 321 321 322 322 320 318 316 316 316 316 316 318 320 321 322 323 324 321 320 324 316 312 316 319 317 311 309 309 310 310 309 307 307 308 308 307 304 300 297 298 303
250 248 246 249 254 257 262 268 277 286 294 301 305 308 311 312 314 317 319 321 323 324 323 321 321 321 322 323 323 323 322 322 320 319 320 320 320 319 317 316 316 316 316 317 318 320 321 320 321 323 322 319 319 313 313 318 319 318 317 314 308 308 311 311 308 309 311 311 311 309 306 301 299 302
242 242 244 248 252 256 261 267 275 283 290 297 301 304 307 310 313 316 319 320 322 322 321 320 320 321 322 323 324 322 320 319 318 318 318 319 318 317 316 316 315 316 317 317 318 320 321 321 321 322 320 313 307 304 305 305 306 309 314 317 313 310 313 314 312 311 310 310 311 310 309 307 305 306
239 239 243 247 249 254 261 268 275 283 289 294 298 301 302 306 311 314 316 319 321 320 319 318 319 321 323 323 324 323 319 317 316 316 316 318 317 316 316 315 314 315 315 315 316 318 319 320 321 320 316 310 306 305 302 298 297 304 313 319 320 319 318 317 315 311 308 309 310 309 309 311 310 310
236 238 240 244 247 252 259 266 273 280 286 290 293 298 300 302 306 310 312 315 316 314 315 317 320 322 322 323 323 321 317 315 315 316 316 317 316 316 316 315 314 315 315 314 313 314 316 318 321 321 317 314 313 312 308 302 303 311 316 320 323 325 325 323 321 317 314 315 314 309 306 309 310 310
235 237 239 242 246 250 256 263 269 274 282 286 288 294 299 301 303 306 309 311 312 312 315 318 321 322 322 322 322 320 315 313 314 315 317 317 316 316 317 316 315 315 314 311 310 312 315 319 323 323 322 320 319 317 312 309 312 315 317 320 324 327 328 328 327 324 322 322 320 315 312 314 312 310
231 234 235 239 244 248 252 260 266 271 277 282 286 290 295 298 302 305 308 311 313 314 315 318 320 320 320 321 322 319 314 313 315 315 316 316 316 314 314 314 314 314 312 310 311 314 317 321 324 325 323 322 322 318 312 312 315 317 319 321 324 326 329 330 331 330 329 327 325 324 324 325 323 319
229 232 233 235 241 246 252 258 264 269 275 280 285 288 291 295 301 307 309 311 312 314 315 316 317 318 320 321 320 317 316 316 317 315 315 315 315 314 313 313 314 314 314 314 315 317 320 323 325 325 323 321 321 319 315 316 318 319 320 321 323 325 329 331 333 334 334 334 334 334 333 331 329 325
227 228 230 233 239 245 252 257 262 268 274 278 283 287 290 294 299 304 308 310 312 314 315 315 316 317 318 319 317 316 317 319 318 317 316 315 315 315 315 315 315 315 316 317 318 319 321 323 325 326 324 322 322 323 321 319 320 320 321 323 324 326 329 331 333 333 331 331 335 338 337 336 335 333